Kiana, AK

9:30 AM AKST on February 27, 2017 (GMT -0900)
Baker Memorial

Weather History for PAIK - September, 2012

Change the Weather History Date:

Wednesday, September 26, 2012

  Actual Average (PASK) Record (PASK)
Temperature  
Mean Temperature 35 °F -  
Max Temperature 28 °F 39 °F 48 °F (2002)
Min Temperature 28 °F 29 °F 24 °F (1996)
Degree Days  
Heating Degree Days 30    
Moisture  
Dew Point 23 °F    
Average Humidity 65    
Maximum Humidity 85    
Minimum Humidity 41    
Precipitation  
Precipitation 0.00 in - - ()
Sea Level Pressure  
Sea Level Pressure 29.64 in    
Wind  
Wind Speed 6 mph (North)    
Max Wind Speed 10 mph    
Max Gust Speed -    
Visibility 10 miles    
Events      
Averages and records for this station are not official NWS values.
T = Trace of Precipitation, MM = Missing Value Source: NWS Daily Summary

Daily Weather History Graph

Daily Weather History Graph

Search for Another Location

Airport or City:

Trip Planner

Search our weather history database for the weather conditions in past years. The results will help you decide how hot, cold, wet, or windy it might be!

Date:

Astronomy

Sep. 26, 2012 Rise Set
Actual Time 8:39 AM AKDT 8:24 PM AKDT
Civil Twilight 7:46 AM AKDT 9:17 PM AKDT
Nautical Twilight 6:41 AM AKDT 10:21 PM AKDT
Astronomical Twilight 5:26 AM AKDT 11:35 PM AKDT
Moon 7:23 PM AKDT (9/26) 4:05 AM AKDT (9/26)
Length of Visible Light 13h 31m
Length of Day
11h 45m
Waxing Gibbous, 89% of the Moon is Illuminated
Sep 26
Waxing Gibbous
Sep 29
Full
Oct 7
Last Quarter
Oct 15
New
Oct 21
First Quarter

Hourly Weather History & Observations

Time (AKDT) Temp. Windchill Dew Point Humidity Pressure Visibility Wind Dir Wind Speed Gust Speed Precip Events Conditions
12:01 AM 33.1 °F 28.7 °F 26.1 °F 75% 29.76 in 10.0 mi NNW 4.6 mph - N/A   Clear
1:01 AM 33.1 °F 28.7 °F 25.0 °F 72% 29.75 in 10.0 mi North 4.6 mph - N/A   Clear
2:01 AM 32.0 °F 25.6 °F 24.1 °F 73% 29.73 in 10.0 mi North 6.9 mph - N/A   Clear
3:01 AM 32.0 °F 24.8 °F 25.0 °F 75% 29.73 in 10.0 mi North 8.1 mph - N/A   Clear
4:01 AM 32.0 °F 24.8 °F 24.1 °F 73% 29.72 in 10.0 mi North 8.1 mph - N/A   Clear
5:01 AM 32.0 °F 25.6 °F 24.1 °F 73% 29.71 in 10.0 mi North 6.9 mph - N/A   Clear
6:01 AM 28.0 °F 21.7 °F 24.1 °F 85% 29.70 in 10.0 mi NNE 5.8 mph - N/A   Clear
7:01 AM 28.0 °F 20.0 °F 23.0 °F 81% 29.69 in 10.0 mi North 8.1 mph - N/A   Clear
8:01 AM 30.0 °F 21.7 °F 23.0 °F 75% 29.68 in 10.0 mi North 9.2 mph - N/A   Clear
9:01 AM 30.0 °F 22.4 °F 23.0 °F 75% 29.68 in 10.0 mi North 8.1 mph - N/A   Clear
10:01 AM 30.9 °F 24.3 °F 24.1 °F 76% 29.68 in 10.0 mi North 6.9 mph - N/A   Clear
11:01 AM 34.0 °F 28.8 °F 23.0 °F 64% 29.67 in 10.0 mi North 5.8 mph - N/A   Clear
12:01 PM 37.0 °F 32.4 °F 21.9 °F 54% 29.67 in 10.0 mi NNW 5.8 mph - N/A   Clear
1:01 PM 37.9 °F 32.7 °F 21.9 °F 53% 29.66 in 10.0 mi NNW 6.9 mph - N/A   Clear
2:01 PM 39.9 °F 34.5 °F 21.9 °F 49% 29.65 in 10.0 mi NNW 8.1 mph - N/A   Clear
3:01 PM 41.0 °F 36.4 °F 21.0 °F 45% 29.63 in 10.0 mi NW 6.9 mph - N/A   Clear
4:01 PM 42.1 °F 40.2 °F 21.0 °F 43% 29.61 in 10.0 mi Variable 3.5 mph - N/A   Clear
5:01 PM 42.1 °F 39.2 °F 19.9 °F 41% 29.59 in 10.0 mi NNE 4.6 mph - N/A   Clear
6:01 PM 41.0 °F 35.8 °F 21.9 °F 47% 29.57 in 10.0 mi ENE 8.1 mph - N/A   Clear
7:01 PM 39.9 °F 35.8 °F 23.0 °F 51% 29.55 in 10.0 mi ENE 5.8 mph - N/A   Clear
8:01 PM 36.0 °F 32.1 °F 24.1 °F 62% 29.53 in 10.0 mi North 4.6 mph - N/A   Clear
9:01 PM 33.1 °F 26.1 °F 24.1 °F 70% 29.52 in 10.0 mi NNW 8.1 mph - N/A   Clear
10:01 PM 30.9 °F 22.2 °F 24.1 °F 76% 29.51 in 10.0 mi NNW 10.4 mph - N/A   Clear
11:01 PM 30.0 °F 21.1 °F 23.0 °F 75% 29.49 in 10.0 mi NNW 10.4 mph - N/A   Clear